Temp
7 6 7 7 6 6 6 6 6 6 6 6 6 5 4 5 5 5 5 5 4 3 2 2 0 -0 -0 -0 -1 -0 -1 -2 -3 -3 -3 -3 -4 -4 -4 -4 -4 -4 -5 -5
7 6 6 6 6 6 6 6 6 5 5 5 5 4 4 5 6 6 5 4 3 2 1 1 1 0 -0 -1 -0 -1 -2 -2 -3 -3 -3 -3 -4 -4 -4 -4 -5 -5 -6 -6
6 5 5 6 5 5 5 5 4 4 4 5 4 4 4 3 4 5 4 2 2 2 2 1 -0 -0 -0 -1 -1 -1 -2 -2 -2 -3 -3 -4 -4 -5 -5 -6 -6 -6 -6 -6
5 5 5 5 5 5 4 4 4 4 4 4 4 2 2 2 1 2 2 2 2 1 1 -0 0 0 -0 -1 -1 -2 -2 -2 -3 -3 -4 -4 -4 -4 -5 -5 -5 -5 -6 -7
5 5 4 5 3 3 3 4 4 4 4 4 3 3 0 1 1 1 0 1 1 1 0 0 1 -0 -1 -1 -1 -2 -2 -2 -4 -3 -3 -4 -5 -5 -5 -5 -6 -7 -7 -7
4 4 4 3 3 3 3 3 4 4 4 1 2 3 -1 -0 0 1 2 2 1 1 0 -0 -0 -1 -1 -1 -2 -2 -2 -3 -3 -4 -4 -4 -5 -5 -6 -6 -6 -7 -7 -7
5 4 3 3 4 4 3 2 1 -0 -1 -2 1 0 -2 -1 0 1 1 0 1 0 -0 -0 -1 -1 -1 -2 -2 -2 -3 -3 -4 -4 -5 -5 -5 -6 -6 -7 -7 -6 -6 -7
2 4 3 1 0 1 2 2 1 -3 -2 -1 1 -2 -1 -1 -0 -0 -0 -0 -0 -1 -1 -1 -1 -1 -2 -2 -2 -3 -3 -4 -4 -5 -5 -5 -6 -6 -6 -7 -6 -6 -7 -7
-0 2 1 1 -0 0 1 1 1 1 0 -1 -1 -1 -2 -2 -1 -1 -1 -1 -1 -1 -1 -1 -2 -2 -2 -2 -3 -3 -4 -4 -4 -5 -5 -6 -6 -6 -7 -7 -6 -6 -7 -7
-2 -1 1 1 1 0 1 -0 0 0 -6 -6 -1 -1 -1 -2 -2 -2 -2 -1 -1 -1 -2 -2 -2 -2 -3 -3 -3 -3 -4 -4 -5 -5 -6 -6 -6 -6 -6 -7 -6 -7 -7 -8
-3 -3 0 -1 -2 -2 -1 -2 -2 -1 -2 -5 -3 -2 -2 -1 -2 -2 -2 -2 -2 -2 -2 -2 -2 -3 -3 -3 -3 -4 -4 -5 -5 -6 -6 -6 -6 -6 -6 -6 -7 -6 -7 -7
-4 -3 -4 -2 -3 -2 -2 -2 -2 -2 -2 -2 -2 -2 -2 -1 -1 -2 -2 -2 -2 -2 -2 -2 -2 -3 -3 -3 -4 -4 -5 -5 -5 -6 -6 -6 -6 -6 -6 -6 -6 -6 -7 -7
-4 -4 -4 -2 -2 -2 -1 -1 -2 -2 -3 -3 -3 -2 -2 -1 -1 -2 -1 -1 -1 -2 -2 -2 -3 -3 -3 -3 -4 -5 -5 -5 -6 -6 -6 -6 -6 -5 -5 -6 -6 -6 -6 -6
-4 -4 -5 -5 -5 -4 -3 -2 -3 -3 -3 -2 -2 -1 -1 -1 -0 -1 -1 -1 -1 -2 -2 -3 -3 -3 -3 -4 -4 -5 -5 -5 -6 -6 -6 -6 -5 -5 -6 -6 -6 -5 -5 -5
-4 -4 -5 -4 -3 -4 -3 -3 -2 -2 -1 -2 -1 -1 -1 -0 -0 -1 -0 -1 -1 -2 -2 -3 -3 -3 -4 -4 -4 -5 -5 -6 -6 -6 -6 -6 -5 -5 -5 -5 -5 -5 -5 -5
-4 -4 -4 -2 -3 -3 -3 -2 -2 -2 -1 -2 -2 -1 -0 -0 -0 0 -0 -1 -1 -2 -2 -3 -3 -3 -3 -4 -4 -5 -5 -6 -6 -6 -6 -5 -5 -5 -5 -5 -5 -5 -5 -5
-5 -5 -5 -2 -3 -2 -2 -3 -3 -2 -2 -2 -1 -1 -0 -0 -0 0 -0 -1 -1 -2 -3 -3 -3 -3 -3 -4 -4 -4 -5 -6 -6 -6 -5 -5 -4 -5 -5 -5 -4 -5 -5 -5
-5 -5 -5 -5 -2 -2 -3 -3 -3 -3 -1 0 0 0 -0 -1 0 -0 -1 -1 -1 -2 -3 -2 -3 -3 -3 -4 -4 -5 -5 -5 -5 -5 -5 -5 -4 -5 -5 -5 -4 -4 -5 -5
-5 -5 -5 -5 -4 -3 -3 -3 -3 -3 -2 -2 -1 -1 -1 -0 0 0 -1 -1 -2 -2 -2 -2 -2 -3 -3 -3 -4 -5 -5 -5 -5 -5 -5 -5 -5 -4 -4 -4 -4 -4 -4 -4
-5 -5 -5 -5 -5 -4 -4 -3 -2 -2 -2 -1 -2 -2 -0 -0 -0 -0 -1 -1 -2 -2 -2 -2 -2 -2 -3 -3 -4 -4 -4 -4 -4 -5 -5 -5 -5 -5 -4 -4 -3 -4 -6 -5
-6 -5 -5 -5 -5 -4 -4 -3 -2 -2 -3 -1 -2 -1 -1 -0 -0 -0 -0 -1 -1 -1 -1 -1 -1 -2 -2 -3 -3 -4 -4 -4 -4 -5 -5 -5 -5 -5 -5 -4 -3 -4 -6 -5
-7 -6 -6 -6 -5 -4 -3 -2 -3 -3 -3 -3 -2 -2 -1 -0 -0 -0 -0 -1 -1 -1 -1 -1 -1 -1 -2 -2 -3 -3 -3 -4 -4 -4 -4 -4 -4 -5 -4 -4 -1 -2 -5 -4
-7 -7 -7 -7 -6 -5 -4 -4 -3 -3 -3 -2 -2 -1 -1 -1 -0 -0 -0 -0 -0 -1 -1 -0 -1 -1 -1 -2 -2 -3 -3 -3 -3 -3 -4 -4 -4 -4 -3 -2 -1 -2 -3 -4
-8 -8 -7 -7 -6 -4 -4 -3 -3 -2 -2 -2 -2 -2 -2 -1 -0 -0 0 -0 -0 -0 -0 -0 -0 -1 -1 -1 -2 -2 -2 -2 -3 -3 -3 -3 -3 -2 -2 -1 -1 -2 -3 -3
-8 -8 -7 -7 -6 -4 -3 -3 -3 -2 -2 -2 -2 -2 -2 -1 -0 0 0 0 -0 0 -0 -0 -0 -0 -1 -1 -1 -1 -2 -2 -2 -2 -2 -2 -2 -2 -2 -1 -1 -2 -3 -3
-7 -8 -8 -7 -6 -4 -3 -3 -2 -2 -1 -2 -2 -2 -2 -1 -0 1 0 0 0 0 0 -0 0 -0 -0 -0 -0 -1 -1 -1 -1 -2 -2 -2 -2 -2 -2 -2 -3 -3 -3 -4
Height
3114 3115 3115 3115 3114 3113 3111 3109 3106 3105 3104 3102 3100 3096 3093 3090 3087 3085 3085 3084 3085 3086 3084 3087 3089 3092 3092 3092 3092 3092 3090 3088 3084 3080 3076 3071 3065 3059 3053 3047 3041 3035 3030 3025
3115 3115 3115 3114 3112 3110 3108 3106 3104 3103 3102 3100 3098 3094 3091 3085 3082 3081 3078 3079 3082 3084 3085 3086 3089 3091 3090 3090 3090 3089 3088 3085 3081 3076 3071 3064 3058 3051 3045 3039 3034 3029 3023 3017
3114 3116 3115 3112 3109 3108 3107 3105 3102 3101 3099 3098 3096 3093 3091 3087 3081 3078 3077 3084 3085 3085 3086 3088 3090 3089 3089 3088 3089 3088 3086 3081 3077 3072 3065 3059 3051 3044 3039 3034 3028 3023 3016 3009
3116 3116 3113 3110 3110 3108 3105 3103 3100 3097 3096 3094 3093 3091 3090 3091 3087 3085 3086 3090 3090 3088 3088 3088 3088 3088 3088 3089 3089 3086 3081 3077 3073 3066 3059 3051 3044 3038 3032 3024 3018 3013 3007 3000
3116 3113 3111 3109 3109 3107 3105 3101 3098 3095 3093 3091 3091 3091 3092 3091 3090 3091 3089 3090 3089 3088 3088 3090 3088 3088 3089 3089 3087 3083 3078 3073 3067 3060 3052 3044 3038 3031 3024 3017 3013 3006 2999 2991
3115 3112 3111 3109 3109 3106 3103 3098 3095 3092 3091 3091 3091 3090 3093 3091 3090 3088 3087 3087 3085 3087 3090 3089 3089 3089 3090 3088 3084 3080 3074 3069 3062 3053 3045 3039 3032 3025 3019 3013 3006 2997 2989 2985
3113 3113 3111 3108 3106 3104 3102 3098 3096 3097 3095 3097 3091 3091 3093 3092 3089 3087 3085 3085 3087 3091 3089 3090 3090 3092 3090 3086 3081 3075 3070 3063 3055 3048 3041 3034 3027 3021 3014 3005 2996 2990 2982 2975
3114 3112 3110 3109 3106 3104 3103 3103 3103 3106 3102 3096 3094 3096 3096 3092 3092 3090 3088 3088 3090 3091 3091 3092 3092 3091 3088 3083 3077 3072 3066 3059 3052 3044 3037 3030 3024 3016 3008 2999 2990 2981 2973 2966
3116 3112 3113 3110 3106 3107 3103 3102 3103 3100 3098 3097 3098 3094 3097 3094 3094 3094 3093 3092 3091 3091 3092 3092 3092 3089 3085 3079 3075 3069 3063 3056 3048 3041 3033 3026 3020 3011 3001 2992 2984 2978 2970 2957
3120 3113 3110 3109 3107 3107 3103 3103 3103 3101 3106 3106 3098 3096 3096 3095 3093 3093 3092 3093 3092 3092 3093 3092 3090 3086 3082 3078 3073 3067 3059 3052 3045 3037 3030 3023 3015 3006 2997 2987 2982 2972 2962 2950
3118 3116 3111 3108 3107 3106 3105 3104 3105 3105 3105 3105 3102 3098 3096 3096 3095 3093 3093 3093 3093 3093 3092 3091 3088 3085 3082 3077 3071 3064 3056 3050 3042 3036 3027 3020 3012 3003 2995 2987 2977 2967 2955 2944
3117 3115 3110 3109 3109 3108 3107 3107 3107 3107 3105 3103 3102 3098 3096 3096 3095 3094 3093 3093 3093 3093 3092 3090 3088 3085 3081 3075 3068 3061 3054 3047 3041 3033 3026 3018 3009 3001 2994 2984 2975 2965 2950 2939
3118 3116 3112 3109 3111 3109 3107 3107 3107 3105 3103 3100 3100 3097 3096 3096 3095 3095 3094 3094 3094 3094 3093 3091 3088 3084 3079 3072 3066 3060 3053 3047 3040 3033 3026 3018 3009 3001 2991 2982 2972 2962 2949 2937
3118 3116 3115 3114 3111 3110 3107 3106 3105 3103 3100 3099 3098 3097 3096 3096 3096 3095 3095 3095 3095 3095 3093 3091 3087 3082 3078 3072 3067 3060 3054 3048 3040 3033 3026 3017 3009 3000 2990 2981 2971 2962 2950 2936
3117 3114 3111 3108 3107 3108 3107 3103 3100 3098 3098 3098 3097 3094 3096 3098 3097 3096 3096 3096 3097 3096 3093 3090 3086 3083 3079 3073 3068 3062 3056 3049 3041 3035 3026 3017 3009 3001 2991 2982 2973 2965 2950 2936
3117 3113 3109 3106 3107 3108 3107 3102 3097 3097 3098 3097 3093 3090 3097 3098 3098 3098 3097 3098 3098 3096 3094 3090 3088 3085 3080 3075 3069 3064 3057 3050 3043 3037 3028 3019 3011 3001 2993 2984 2974 2965 2952 2938
3117 3113 3109 3107 3106 3105 3104 3104 3101 3103 3102 3100 3097 3099 3100 3100 3099 3100 3099 3099 3099 3096 3095 3092 3090 3087 3083 3078 3073 3066 3059 3053 3047 3040 3031 3023 3014 3005 2996 2986 2977 2969 2956 2943
3118 3114 3111 3109 3106 3107 3110 3107 3105 3101 3101 3100 3101 3102 3103 3103 3102 3102 3101 3101 3100 3099 3097 3095 3093 3090 3086 3082 3076 3069 3063 3058 3052 3043 3036 3027 3019 3010 3000 2991 2982 2973 2961 2947
3120 3117 3113 3112 3109 3111 3111 3109 3107 3104 3106 3104 3104 3106 3107 3106 3106 3104 3103 3104 3103 3102 3101 3099 3096 3094 3090 3085 3080 3074 3069 3063 3056 3048 3040 3032 3024 3015 3007 2998 2987 2977 2965 2953
3119 3117 3116 3112 3111 3111 3111 3107 3107 3107 3109 3107 3105 3107 3112 3111 3109 3108 3106 3107 3106 3106 3104 3102 3100 3098 3094 3089 3084 3080 3074 3069 3060 3053 3045 3038 3030 3022 3015 3005 2995 2984 2970 2958
3118 3117 3116 3114 3113 3113 3111 3107 3108 3110 3117 3109 3108 3108 3111 3113 3112 3111 3110 3110 3110 3109 3108 3106 3104 3102 3098 3093 3089 3086 3080 3074 3064 3059 3052 3046 3039 3032 3025 3016 3007 2995 2980 2966
3121 3118 3117 3115 3114 3115 3113 3111 3111 3115 3113 3112 3111 3110 3110 3114 3113 3113 3113 3113 3113 3113 3112 3110 3109 3106 3103 3099 3095 3091 3086 3079 3072 3068 3063 3056 3049 3043 3037 3029 3020 3008 2990 2976
3122 3122 3120 3119 3117 3115 3114 3113 3113 3114 3114 3113 3111 3111 3113 3115 3116 3116 3116 3117 3116 3116 3116 3114 3113 3111 3108 3104 3101 3098 3092 3087 3082 3078 3072 3066 3060 3054 3048 3040 3030 3019 3003 2988
3121 3120 3118 3118 3115 3113 3114 3115 3115 3115 3115 3115 3114 3114 3117 3117 3118 3119 3119 3119 3119 3120 3119 3118 3117 3116 3113 3110 3107 3104 3099 3096 3092 3088 3082 3076 3071 3064 3058 3050 3041 3031 3015 3003
3120 3120 3118 3116 3114 3113 3115 3116 3115 3115 3115 3116 3115 3115 3118 3120 3120 3121 3122 3122 3122 3123 3123 3122 3122 3120 3118 3116 3114 3111 3107 3104 3101 3097 3092 3086 3080 3074 3068 3062 3052 3040 3028 3019
3120 3119 3117 3113 3113 3113 3115 3115 3114 3114 3114 3115 3115 3116 3119 3121 3122 3123 3124 3124 3125 3125 3126 3126 3126 3125 3124 3122 3121 3118 3115 3112 3109 3106 3101 3096 3091 3086 3080 3074 3065 3055 3049 3041
Wind_Speed
2 4 5 9 10 8 9 13 11 11 17 23 25 18 13 9 12 18 25 29 25 14 11 7 11 15 19 20 21 24 26 24 25 28 31 33 36 36 35 34 35 36 37 38
3 2 5 7 6 7 10 14 17 20 23 18 12 11 14 18 17 14 19 30 24 15 12 9 13 18 23 23 23 25 27 25 26 29 33 35 37 35 35 35 35 35 35 36
5 5 10 15 9 13 13 14 22 19 19 16 17 15 9 14 10 9 6 24 18 12 7 12 16 23 24 24 24 24 27 24 27 30 34 36 34 34 34 34 32 32 35 37
6 10 14 12 9 15 16 17 23 18 21 23 14 3 7 9 10 16 15 15 13 13 15 16 18 24 24 22 22 25 24 26 29 32 35 34 34 35 35 36 37 38 39 40
5 11 7 11 12 14 16 24 20 16 20 14 13 6 6 7 7 6 8 13 19 18 18 15 22 24 22 20 22 25 27 29 31 35 33 34 36 36 36 37 37 38 38 37
5 1 4 8 10 14 12 21 13 9 7 3 18 5 9 11 12 7 8 8 21 24 15 21 25 22 17 19 23 26 27 30 33 32 34 36 36 36 37 37 38 38 36 33
2 2 8 14 20 18 11 22 8 6 6 3 16 9 10 12 13 10 7 5 6 14 16 22 21 16 17 19 24 27 30 32 31 33 34 35 35 36 37 38 39 36 34 34
13 4 16 18 14 15 12 10 6 2 2 5 7 3 10 12 11 10 8 9 14 11 13 17 16 15 16 21 24 28 29 29 29 31 32 33 34 34 36 37 34 34 36 37
14 6 7 14 9 14 11 8 5 5 3 2 2 2 12 9 9 1 3 5 9 13 15 13 12 15 18 19 24 25 26 27 29 30 31 31 33 35 36 34 34 35 34 37
9 15 7 16 9 8 14 3 3 6 4 4 3 3 5 10 8 9 6 5 5 8 10 11 14 13 15 21 22 23 24 26 28 28 30 31 33 34 33 34 33 33 37 41
11 8 13 14 13 11 13 23 12 5 2 2 3 2 7 5 4 7 8 5 5 7 9 8 9 12 17 18 19 21 24 26 27 29 31 32 32 31 30 31 31 36 40 43
13 7 16 9 9 4 11 18 20 8 3 6 3 5 0 5 5 3 5 4 5 6 7 6 10 13 14 17 20 23 26 27 28 29 30 31 31 29 30 29 31 35 40 43
13 7 10 3 5 7 7 12 22 17 14 5 2 3 3 8 7 4 6 4 5 6 5 8 11 13 17 20 22 24 26 27 27 27 29 30 28 28 28 29 32 35 39 42
14 11 8 9 16 17 18 12 16 14 11 4 5 5 6 8 7 6 6 4 3 5 6 9 13 17 19 21 23 25 26 26 26 28 30 29 27 27 28 28 32 36 40 42
18 11 14 11 5 5 11 14 12 4 8 3 7 5 5 5 5 4 4 1 4 6 8 13 16 17 19 22 24 25 25 24 26 29 29 29 28 28 27 25 30 35 38 40
22 19 16 6 5 12 6 11 22 16 17 5 15 12 10 10 9 4 3 4 9 8 13 15 16 19 22 22 24 24 24 26 28 30 29 28 28 28 29 30 34 36 36 38
22 22 14 3 15 8 5 20 29 25 24 17 16 4 10 11 8 6 5 8 13 12 16 15 17 20 22 22 22 23 25 27 28 29 28 29 29 31 34 32 33 34 38 40
21 20 9 9 11 4 9 9 15 15 23 18 18 12 9 9 7 6 9 13 14 14 14 14 17 20 21 21 23 25 25 28 29 29 30 32 32 35 37 38 34 33 37 42
17 18 7 7 5 2 20 6 11 15 26 19 16 16 10 9 6 10 11 14 13 12 12 13 17 19 20 22 24 25 26 29 29 32 34 36 39 39 40 40 41 43 40 43
15 13 8 5 3 4 21 7 10 12 17 18 13 9 11 13 13 13 11 12 11 10 11 14 16 18 20 24 27 26 28 30 33 36 37 40 41 42 43 40 41 45 46 45
13 11 8 7 3 4 17 11 13 13 13 15 11 8 2 12 14 10 9 10 10 10 11 15 16 18 21 26 29 29 31 33 36 38 39 40 41 42 42 40 43 45 44 49
9 6 7 6 3 3 14 16 15 14 9 16 10 13 6 7 6 6 8 8 9 11 12 15 17 18 21 26 29 30 34 37 36 37 38 39 40 40 42 42 44 41 57 56
1 8 8 6 13 5 8 13 13 9 7 11 7 11 13 4 3 5 6 9 10 12 12 15 16 18 21 25 28 30 35 38 38 38 38 39 39 40 42 44 41 44 59 66
6 7 8 12 8 3 9 10 7 4 4 8 5 9 3 5 2 4 8 10 11 12 13 16 16 17 20 24 27 30 34 36 37 36 38 40 41 44 46 46 48 49 61 64
4 6 9 13 11 1 13 9 4 2 6 13 8 9 4 3 4 6 10 11 10 11 13 15 16 17 19 22 25 28 31 34 34 36 38 41 44 46 48 48 53 56 62 63
10 13 15 14 11 2 8 5 5 7 11 16 11 10 2 1 5 7 12 12 10 12 13 14 16 17 18 20 22 26 28 31 33 34 37 39 42 44 46 49 51 57 57 59
Wind_Direction
37 307 349 348 354 354 338 330 331 324 326 322 330 341 5 324 332 256 258 252 241 237 236 272 264 263 266 278 295 309 323 312 305 303 306 310 314 315 313 311 309 309 311 312
213 75 348 339 314 322 319 321 326 322 329 345 359 342 359 334 330 320 256 239 218 214 216 243 263 265 265 270 292 305 318 309 301 301 305 311 314 313 312 311 314 316 313 309
75 21 335 327 310 326 327 337 334 326 336 331 329 308 338 26 358 32 225 209 205 226 247 274 270 256 259 271 289 301 309 302 300 304 307 311 313 313 314 316 313 309 305 303
63 354 342 337 329 340 341 325 324 304 325 319 326 246 29 64 55 77 116 189 228 216 250 249 260 249 260 273 291 302 307 306 307 307 309 312 314 319 322 318 314 314 314 309
8 336 336 329 346 333 334 319 309 319 311 313 33 45 359 39 82 98 188 201 222 237 235 250 252 249 261 280 297 312 311 308 307 310 315 318 324 324 318 316 319 316 312 307
4 274 300 338 326 340 340 342 335 313 335 77 356 278 51 20 352 321 284 238 218 232 221 242 239 243 266 288 317 315 307 309 313 318 324 325 322 319 320 322 320 314 311 314
146 195 339 306 310 309 5 5 0 14 7 233 353 55 40 29 27 13 329 265 210 190 228 241 238 264 285 312 316 310 313 318 322 326 323 322 320 325 325 321 321 323 319 318
349 345 344 353 3 336 347 0 15 247 292 300 20 41 15 36 37 63 93 128 161 210 255 247 256 283 308 313 312 316 320 325 325 322 323 323 328 325 325 326 322 322 323 327
352 318 0 10 349 8 344 352 0 293 290 329 55 45 64 32 39 262 258 287 251 253 253 252 280 303 311 312 318 322 326 326 324 327 327 329 330 330 327 327 327 330 335 326
315 302 330 328 316 352 9 350 20 354 36 338 353 66 92 42 16 345 332 305 249 232 253 285 308 314 314 321 325 330 329 329 333 333 333 336 335 333 334 330 338 335 336 331
344 298 314 351 30 19 61 42 25 17 43 162 324 317 129 38 45 294 309 290 276 287 309 325 322 323 327 330 335 335 335 341 340 341 340 339 338 337 337 342 340 344 335 338
358 334 318 356 68 60 48 28 9 340 332 285 247 277 222 5 35 24 314 327 351 357 0 339 334 335 340 347 348 345 347 346 348 344 342 342 343 344 347 348 349 347 342 345
3 338 334 25 226 266 319 332 347 336 323 233 216 291 101 45 6 350 353 340 342 3 2 346 350 355 3 359 354 354 351 351 349 347 349 349 350 359 355 355 353 352 348 351
355 340 297 264 283 297 310 325 327 305 278 236 274 355 119 4 356 348 342 329 346 27 1 8 11 11 8 3 359 356 355 354 353 356 357 355 359 6 4 2 355 353 351 351
4 355 333 309 310 328 336 338 348 344 2 270 313 283 111 58 37 353 352 14 43 43 26 30 22 14 12 8 2 359 360 1 3 5 3 1 3 10 8 4 0 2 358 355
7 351 347 99 63 340 48 31 45 82 54 28 10 121 81 53 39 38 65 61 61 52 44 34 24 20 18 10 4 5 6 12 12 15 10 8 8 10 10 9 8 10 6 3
4 355 353 296 351 112 62 24 66 55 52 38 21 63 63 45 64 67 61 67 68 49 45 31 25 24 19 13 12 15 17 20 19 19 17 17 17 16 16 14 13 15 17 15
1 1 350 321 11 59 16 85 74 50 61 75 67 50 48 32 64 72 68 64 62 49 43 32 29 26 22 20 24 25 24 28 27 24 25 28 24 24 21 25 28 24 21 23
353 359 346 343 350 300 28 55 62 51 56 66 75 51 35 39 48 66 57 62 59 52 46 40 36 30 29 31 32 31 32 35 34 31 32 33 31 31 29 32 38 35 31 28
347 356 6 344 341 18 9 163 109 96 54 71 84 114 20 19 17 31 55 64 64 59 51 49 41 37 37 40 40 38 40 41 39 38 35 36 35 34 36 35 37 34 29 35
351 360 12 9 345 30 35 100 111 58 18 76 64 124 85 348 346 16 54 71 76 72 60 56 45 42 44 46 46 43 46 47 44 41 37 38 39 39 41 42 45 36 35 43
350 1 360 356 347 17 67 82 81 66 57 48 73 55 35 317 343 31 69 89 88 79 68 59 52 46 48 50 51 48 48 50 47 46 43 43 42 43 46 49 50 41 46 47
314 12 333 353 310 337 82 85 95 102 80 75 86 74 36 67 43 70 101 103 93 83 75 65 56 51 51 53 52 51 51 52 51 49 48 48 48 48 50 55 53 47 51 50
293 299 306 314 321 296 148 98 123 121 149 125 138 115 31 357 103 104 115 107 93 88 81 72 62 54 53 55 53 53 54 54 54 52 52 53 51 51 53 55 56 49 55 55
341 338 313 303 298 181 155 166 156 190 181 167 186 143 169 356 137 130 117 110 99 90 82 75 68 61 56 56 56 54 54 54 54 53 54 54 54 52 52 50 52 49 50 53
4 337 327 303 312 178 134 138 179 204 188 176 192 139 135 49 135 129 119 117 110 93 83 78 72 66 62 60 59 57 56 55 54 52 53 54 54 54 52 51 51 52 53 55